Time,TemperatureF,DewpointF,PressureIn,WindDirection,WindDirectionDegrees,WindSpeedMPH,WindSpeedGustMPH,Humidity,HourlyPrecipIn,Conditions,Clouds,dailyrainin,SoftwareType,DateUTC
2013-10-30 00:11:00,69.4,65.0,29.98,SE,134,1.0,-999.0,87,-99.99,,,0.00,weatherlink.com 1.10,2013-10-30 06:11:00,
2013-10-30 00:26:00,69.5,65.0,29.99,South,176,2.0,-999.0,86,-99.99,,,0.00,weatherlink.com 1.10,2013-10-30 06:26:00,
2013-10-30 00:41:00,69.7,65.0,29.99,NE,47,0.0,-999.0,86,-99.99,,,0.00,weatherlink.com 1.10,2013-10-30 06:41:00,
2013-10-30 00:56:00,69.8,66.0,29.99,SE,133,1.0,-999.0,86,-99.99,,,0.00,weatherlink.com 1.10,2013-10-30 06:56:00,
2013-10-30 01:11:00,69.9,66.0,29.98,ENE,75,4.0,-999.0,86,-99.99,,,0.00,weatherlink.com 1.10,2013-10-30 07:11:00,
2013-10-30 01:26:00,70.0,66.0,29.98,SSE,159,1.0,-999.0,86,-99.99,,,0.00,weatherlink.com 1.10,2013-10-30 07:26:00,
2013-10-30 01:41:00,70.1,66.0,29.98,ESE,113,0.0,-999.0,86,-99.99,,,0.00,weatherlink.com 1.10,2013-10-30 07:41:00,
2013-10-30 01:56:00,70.1,65.0,29.97,SSE,165,4.0,-999.0,85,-99.99,,,0.00,weatherlink.com 1.10,2013-10-30 07:56:00,
2013-10-30 02:11:00,70.2,66.0,29.97,SSE,168,0.0,-999.0,85,-99.99,,,0.00,weatherlink.com 1.10,2013-10-30 08:11:00,
2013-10-30 02:26:00,70.3,66.0,29.96,SE,132,0.0,-999.0,86,-99.99,,,0.00,weatherlink.com 1.10,2013-10-30 08:26:00,
2013-10-30 02:41:00,70.4,66.0,29.96,SE,126,0.0,-999.0,86,-99.99,,,0.00,weatherlink.com 1.10,2013-10-30 08:41:00,
2013-10-30 02:56:00,70.6,66.0,29.95,ESE,109,0.0,-999.0,86,-99.99,,,0.00,weatherlink.com 1.10,2013-10-30 08:56:00,
2013-10-30 03:11:00,70.7,66.0,29.95,SSE,148,1.0,-999.0,86,-99.99,,,0.00,weatherlink.com 1.10,2013-10-30 09:11:00,
2013-10-30 03:27:00,70.8,67.0,29.95,SSW,213,1.0,-999.0,87,-99.99,,,0.00,weatherlink.com 1.10,2013-10-30 09:27:00,
2013-10-30 03:42:00,71.0,67.0,29.95,SSW,211,0.0,-999.0,87,-99.99,,,0.00,weatherlink.com 1.10,2013-10-30 09:42:00,
2013-10-30 03:57:00,71.1,67.0,29.95,SSW,210,0.0,-999.0,88,-99.99,,,0.00,weatherlink.com 1.10,2013-10-30 09:57:00,
2013-10-30 04:12:00,71.1,68.0,29.95,SSW,210,0.0,-999.0,89,-99.99,,,0.00,weatherlink.com 1.10,2013-10-30 10:12:00,
2013-10-30 04:27:00,71.2,68.0,29.94,SW,214,1.0,-999.0,89,-99.99,,,0.00,weatherlink.com 1.10,2013-10-30 10:27:00,
2013-10-30 04:42:00,71.2,68.0,29.93,ESE,121,1.0,-999.0,90,-99.99,,,0.00,weatherlink.com 1.10,2013-10-30 10:42:00,
2013-10-30 04:57:00,71.1,68.0,29.93,SE,140,0.0,-999.0,90,-99.99,,,0.00,weatherlink.com 1.10,2013-10-30 10:57:00,
2013-10-30 05:12:00,71.1,68.0,29.93,SE,144,0.0,-999.0,90,-99.99,,,0.00,weatherlink.com 1.10,2013-10-30 11:12:00,
2013-10-30 05:27:00,71.2,68.0,29.93,ENE,67,0.0,-999.0,90,-99.99,,,0.00,weatherlink.com 1.10,2013-10-30 11:27:00,
2013-10-30 05:42:00,71.1,68.0,29.93,ENE,67,0.0,-999.0,90,-99.99,,,0.00,weatherlink.com 1.10,2013-10-30 11:42:00,
2013-10-30 05:57:00,71.2,68.0,29.93,ENE,67,0.0,-999.0,90,-99.99,,,0.00,weatherlink.com 1.10,2013-10-30 11:57:00,
2013-10-30 06:12:00,71.2,68.0,29.93,ENE,67,0.0,-999.0,90,-99.99,,,0.00,weatherlink.com 1.10,2013-10-30 12:12:00,
2013-10-30 06:27:00,71.2,68.0,29.93,ENE,67,0.0,-999.0,90,-99.99,,,0.00,weatherlink.com 1.10,2013-10-30 12:27:00,
2013-10-30 06:42:00,71.2,68.0,29.93,ENE,67,0.0,-999.0,90,-99.99,,,0.00,weatherlink.com 1.10,2013-10-30 12:42:00,
2013-10-30 06:57:00,71.2,69.0,29.93,ENE,67,0.0,-999.0,91,-99.99,,,0.00,weatherlink.com 1.10,2013-10-30 12:57:00,
2013-10-30 07:12:00,71.3,69.0,29.93,ENE,67,0.0,-999.0,91,-99.99,,,0.00,weatherlink.com 1.10,2013-10-30 13:12:00,
2013-10-30 07:27:00,71.3,69.0,29.93,ESE,123,0.0,-999.0,91,-99.99,,,0.00,weatherlink.com 1.10,2013-10-30 13:27:00,
2013-10-30 07:42:00,71.4,69.0,29.93,ESE,123,1.0,-999.0,91,-99.99,,,0.00,weatherlink.com 1.10,2013-10-30 13:42:00,
2013-10-30 07:57:00,71.7,69.0,29.93,ESE,119,0.0,-999.0,90,-99.99,,,0.00,weatherlink.com 1.10,2013-10-30 13:57:00,
2013-10-30 08:12:00,71.8,69.0,29.94,SSE,154,0.0,-999.0,90,-99.99,,,0.00,weatherlink.com 1.10,2013-10-30 14:12:00,
2013-10-30 08:27:00,72.1,69.0,29.94,NE,50,2.0,-999.0,89,-99.99,,,0.00,weatherlink.com 1.10,2013-10-30 14:27:00,
2013-10-30 08:42:00,72.5,69.0,29.95,SW,227,2.0,-999.0,88,-99.99,,,0.00,weatherlink.com 1.10,2013-10-30 14:42:00,
2013-10-30 08:57:00,72.7,68.0,29.95,WSW,238,0.0,-999.0,86,-99.99,,,0.00,weatherlink.com 1.10,2013-10-30 14:57:00,
2013-10-30 09:12:00,73.0,68.0,29.94,SW,223,1.0,-999.0,85,-99.99,,,0.00,weatherlink.com 1.10,2013-10-30 15:12:00,
2013-10-30 09:27:00,73.0,68.0,29.94,SE,144,0.0,-999.0,84,-99.99,,,0.00,weatherlink.com 1.10,2013-10-30 15:27:00,
2013-10-30 09:42:00,73.2,68.0,29.95,ESE,120,0.0,-999.0,84,-99.99,,,0.00,weatherlink.com 1.10,2013-10-30 15:42:00,
2013-10-30 09:56:00,73.0,68.0,29.95,SW,219,0.0,-999.0,83,-99.99,,,0.00,weatherlink.com 1.10,2013-10-30 15:56:00,
2013-10-30 10:11:00,72.9,68.0,29.95,SSE,163,2.0,-999.0,84,-99.99,,,0.00,weatherlink.com 1.10,2013-10-30 16:11:00,
2013-10-30 10:26:00,73.3,68.0,29.95,WSW,239,0.0,-999.0,84,-99.99,,,0.00,weatherlink.com 1.10,2013-10-30 16:26:00,
2013-10-30 10:41:00,74.2,69.0,29.94,SW,217,1.0,-999.0,83,-99.99,,,0.00,weatherlink.com 1.10,2013-10-30 16:41:00,
2013-10-30 10:56:00,75.5,69.0,29.94,WSW,255,4.0,-999.0,79,-99.99,,,0.00,weatherlink.com 1.10,2013-10-30 16:56:00,
2013-10-30 11:11:00,75.9,68.0,29.93,South,172,0.0,-999.0,77,-99.99,,,0.00,weatherlink.com 1.10,2013-10-30 17:11:00,
2013-10-30 11:26:00,76.3,68.0,29.93,SSE,154,4.0,-999.0,76,-99.99,,,0.00,weatherlink.com 1.10,2013-10-30 17:26:00,
2013-10-30 11:41:00,76.4,69.0,29.93,SSE,163,2.0,-999.0,78,-99.99,,,0.00,weatherlink.com 1.10,2013-10-30 17:41:00,
2013-10-30 11:56:00,76.9,68.0,29.92,SW,216,3.0,-999.0,75,-99.99,,,0.00,weatherlink.com 1.10,2013-10-30 17:56:00,
2013-10-30 12:11:00,76.6,68.0,29.92,SSW,199,0.0,-999.0,74,-99.99,,,0.00,weatherlink.com 1.10,2013-10-30 18:11:00,
2013-10-30 12:26:00,76.5,68.0,29.91,SW,227,0.0,-999.0,75,-99.99,,,0.00,weatherlink.com 1.10,2013-10-30 18:26:00,
2013-10-30 12:41:00,76.3,68.0,29.91,WSW,241,0.0,-999.0,76,-99.99,,,0.00,weatherlink.com 1.10,2013-10-30 18:41:00,
2013-10-30 12:56:00,76.7,69.0,29.90,SW,232,0.0,-999.0,76,-99.99,,,0.00,weatherlink.com 1.10,2013-10-30 18:56:00,
2013-10-30 13:11:00,77.2,68.0,29.89,SSW,209,0.0,-999.0,74,-99.99,,,0.00,weatherlink.com 1.10,2013-10-30 19:11:00,
2013-10-30 13:26:00,78.6,69.0,29.88,SW,215,2.0,-999.0,73,-99.99,,,0.00,weatherlink.com 1.10,2013-10-30 19:26:00,
2013-10-30 13:41:00,79.7,69.0,29.88,South,171,1.0,-999.0,70,-99.99,,,0.00,weatherlink.com 1.10,2013-10-30 19:41:00,
2013-10-30 13:56:00,78.9,68.0,29.86,South,180,2.0,-999.0,70,-99.99,,,0.00,weatherlink.com 1.10,2013-10-30 19:56:00,
2013-10-30 14:11:00,78.0,68.0,29.86,SSW,194,0.0,-999.0,71,-99.99,,,0.00,weatherlink.com 1.10,2013-10-30 20:11:00,
2013-10-30 14:26:00,77.8,69.0,29.85,WSW,242,0.0,-999.0,73,-99.99,,,0.00,weatherlink.com 1.10,2013-10-30 20:26:00,
2013-10-30 14:41:00,77.3,69.0,29.85,SW,222,1.0,-999.0,76,-99.99,,,0.00,weatherlink.com 1.10,2013-10-30 20:41:00,
2013-10-30 14:56:00,76.7,69.0,29.85,SSW,209,0.0,-999.0,78,-99.99,,,0.00,weatherlink.com 1.10,2013-10-30 20:56:00,
2013-10-30 15:12:00,76.1,70.0,29.85,West,280,0.0,-999.0,80,-99.99,,,0.01,weatherlink.com 1.10,2013-10-30 21:12:00,
2013-10-30 15:27:00,76.0,70.0,29.84,West,279,0.0,-999.0,82,-99.99,,,0.01,weatherlink.com 1.10,2013-10-30 21:27:00,
2013-10-30 15:42:00,75.8,70.0,29.83,West,279,0.0,-999.0,83,-99.99,,,0.01,weatherlink.com 1.10,2013-10-30 21:42:00,
2013-10-30 15:57:00,75.8,70.0,29.82,West,279,0.0,-999.0,83,-99.99,,,0.01,weatherlink.com 1.10,2013-10-30 21:57:00,
2013-10-30 16:12:00,75.6,70.0,29.83,West,279,0.0,-999.0,83,-99.99,,,0.01,weatherlink.com 1.10,2013-10-30 22:12:00,
2013-10-30 16:27:00,75.4,70.0,29.83,West,280,0.0,-999.0,83,-99.99,,,0.01,weatherlink.com 1.10,2013-10-30 22:27:00,
2013-10-30 16:42:00,75.3,70.0,29.83,West,280,0.0,-999.0,83,-99.99,,,0.01,weatherlink.com 1.10,2013-10-30 22:42:00,
2013-10-30 16:57:00,75.0,70.0,29.83,West,280,0.0,-999.0,83,-99.99,,,0.01,weatherlink.com 1.10,2013-10-30 22:57:00,
2013-10-30 17:12:00,74.5,69.0,29.83,West,280,0.0,-999.0,83,-99.99,,,0.01,weatherlink.com 1.10,2013-10-30 23:12:00,
2013-10-30 17:27:00,74.2,69.0,29.83,West,280,0.0,-999.0,84,-99.99,,,0.01,weatherlink.com 1.10,2013-10-30 23:27:00,
2013-10-30 17:42:00,74.0,69.0,29.83,West,280,0.0,-999.0,84,-99.99,,,0.01,weatherlink.com 1.10,2013-10-30 23:42:00,
2013-10-30 17:57:00,73.7,69.0,29.83,West,280,0.0,-999.0,84,-99.99,,,0.01,weatherlink.com 1.10,2013-10-30 23:57:00,
2013-10-30 18:12:00,73.3,69.0,29.83,West,280,0.0,-999.0,85,-99.99,,,0.01,weatherlink.com 1.10,2013-10-31 00:12:00,
2013-10-30 18:27:00,73.0,68.0,29.84,West,280,0.0,-999.0,85,-99.99,,,0.01,weatherlink.com 1.10,2013-10-31 00:27:00,
2013-10-30 18:41:00,72.6,68.0,29.84,West,280,0.0,-999.0,86,-99.99,,,0.01,weatherlink.com 1.10,2013-10-31 00:41:00,
2013-10-30 18:57:00,72.0,68.0,29.84,West,280,0.0,-999.0,86,-99.99,,,0.01,weatherlink.com 1.10,2013-10-31 00:57:00,
2013-10-30 19:12:00,71.5,68.0,29.84,West,280,0.0,-999.0,87,-99.99,,,0.01,weatherlink.com 1.10,2013-10-31 01:12:00,
2013-10-30 19:27:00,71.3,68.0,29.84,West,280,0.0,-999.0,88,-99.99,,,0.01,weatherlink.com 1.10,2013-10-31 01:27:00,
2013-10-30 19:42:00,71.0,67.0,29.84,West,280,0.0,-999.0,88,-99.99,,,0.01,weatherlink.com 1.10,2013-10-31 01:42:00,
2013-10-30 19:57:00,70.8,68.0,29.83,West,280,0.0,-999.0,89,-99.99,,,0.01,weatherlink.com 1.10,2013-10-31 01:57:00,
2013-10-30 20:12:00,70.8,68.0,29.83,West,280,0.0,-999.0,89,-99.99,,,0.01,weatherlink.com 1.10,2013-10-31 02:12:00,
2013-10-30 20:27:00,71.0,68.0,29.82,West,280,0.0,-999.0,89,-99.99,,,0.01,weatherlink.com 1.10,2013-10-31 02:27:00,
2013-10-30 20:42:00,71.1,68.0,29.82,West,280,0.0,-999.0,89,-99.99,,,0.01,weatherlink.com 1.10,2013-10-31 02:42:00,
2013-10-30 20:57:00,71.3,68.0,29.82,West,280,0.0,-999.0,89,-99.99,,,0.01,weatherlink.com 1.10,2013-10-31 02:57:00,
2013-10-30 21:12:00,71.5,68.0,29.83,West,280,0.0,-999.0,89,-99.99,,,0.01,weatherlink.com 1.10,2013-10-31 03:12:00,
2013-10-30 21:27:00,71.6,68.0,29.82,West,280,0.0,-999.0,88,-99.99,,,0.01,weatherlink.com 1.10,2013-10-31 03:27:00,
2013-10-30 21:42:00,71.6,68.0,29.83,West,280,0.0,-999.0,88,-99.99,,,0.01,weatherlink.com 1.10,2013-10-31 03:42:00,
2013-10-30 21:57:00,71.6,68.0,29.82,West,280,0.0,-999.0,88,-99.99,,,0.01,weatherlink.com 1.10,2013-10-31 03:57:00,
2013-10-30 22:12:00,71.5,68.0,29.82,West,280,1.0,-999.0,89,-99.99,,,0.02,weatherlink.com 1.10,2013-10-31 04:12:00,
2013-10-30 22:27:00,71.2,68.0,29.82,NNW,335,0.0,-999.0,89,-99.99,,,0.03,weatherlink.com 1.10,2013-10-31 04:27:00,
2013-10-30 22:42:00,71.0,68.0,29.80,NNW,335,0.0,-999.0,89,-99.99,,,0.10,weatherlink.com 1.10,2013-10-31 04:42:00,
2013-10-30 22:57:00,70.8,68.0,29.80,NNW,335,0.0,-999.0,90,-99.99,,,0.10,weatherlink.com 1.10,2013-10-31 04:57:00,
2013-10-30 23:11:00,70.6,68.0,29.80,NNW,335,0.0,-999.0,90,-99.99,,,0.00,weatherlink.com 1.10,2013-10-31 05:11:00,
2013-10-30 23:26:00,70.3,67.0,29.80,NNW,335,0.0,-999.0,90,-99.99,,,0.00,weatherlink.com 1.10,2013-10-31 05:26:00,
2013-10-30 23:41:00,69.9,67.0,29.80,NNW,335,0.0,-999.0,90,-99.99,,,0.00,weatherlink.com 1.10,2013-10-31 05:41:00,
2013-10-30 23:56:00,69.8,67.0,29.79,NNW,335,0.0,-999.0,91,-99.99,,,0.00,weatherlink.com 1.10,2013-10-31 05:56:00,